User: anonymous   Login
Location: Heiligenberg
(48.5381°N, 7.3897°E)
Time: 05:47:11
(UTC+00:00)
Language:

AQUA - Orbit

View from above orbital plane
View from above orbital plane
View from above satellite
View from above satellite

Ground track
Ground track

The orbit data is extracted from the following two-line orbital elements,

1 27424U 02022A   22222.87748792  .00000387  00000-0  95557-4 0  9990
2 27424  98.2489 164.2591 0002025  76.0056  16.6178 14.57349999 78118
Epoch (UTC): 10 August 2022 21:03:34
Eccentricity: 0.0002025
inclination: 98.2489°
perigee height: 700 km
apogee height: 703 km
right ascension of ascending node: 164.2591°
argument of perigee: 76.0056°
revolutions per day: 14.57349999
mean anomaly at epoch: 16.6178°
orbit number at epoch: 7811

The dashed part of the orbit path shows where the satellite is in the earth's shadow,  

DLR